Regional Weather Roundup
Issued by NWS Wakefield, VA

Home | Current Version | Previous Version | Text Only | Print | Product List | Glossary Off
Versions: 1 2 3 4 5 6 7 8 9 10 11 12 13 14 15 16 17 18 19 20 21 22 23 24 25 26 27 28 29 30 31 32 33 34 35 36 37 38 39 40 41 42 43 44 45 46 47 48 49 50

000
ASUS41 KAKQ 050815
RWRAKQ

REGIONAL WEATHER ROUNDUP
NATIONAL WEATHER SERVICE WAKEFIELD VA
400 AM EDT WED AUG 05 2015

Note: "fair" indicates few or no clouds below 12,000 feet with no
significant weather and/or obstructions to visibility. * = Denotes
station may not report precipitation (e.g., rain,snow,etc.),
thunder or fog.

VAZ042-051-052>054-056-050900-
NORTHERN VIRGINIA

CITY           SKY/WX    TMP DP  RH WIND       PRES   REMARKS
WASH NATIONAL  CLOUDY    77  69  76 N5        29.94R
DULLES         MOCLDY    70  68  93 NW5       29.95S
FORT BELVOIR   CLOUDY    70  68  94 CALM      29.93S
QUANTICO       CLOUDY    72  67  84 NW6       29.93S
FREDERICKSBRG* CLOUDY    73  69  86 CALM      29.92S
STAFFORD*      CLOUDY    68  66  93 N6        29.97S
WARRENTON      CLOUDY    67  67 100 CALM      29.94S
CULPEPER*      PTCLDY    66  66  98 CALM      29.95S
MANASSAS*      MOCLDY    66  66 100 CALM      29.95R
LEESBURG*      PTCLDY    68  68 100 CALM      29.96S
WINCHESTER     MOCLDY    68  66  94 CALM      29.96F
FRONT ROYAL*   FAIR      64  64 100 CALM      29.96S
LURAY*         FAIR      64  64 100 CALM      29.97F
$$

VAZ048-049-060>072-079>083-050900-
CENTRAL AND SOUTH CENTRAL VIRGINIA

CITY           SKY/WX    TMP DP  RH WIND       PRES   REMARKS
RICHMOND       MOCLDY    78  71  79 CALM      29.93S
CHESTERFIELD*  FAIR      73  61  64 W3        29.95S
PETERSBURG*    MOCLDY    72  72 100 CALM      29.94S
HANOVER        CLOUDY    70  69  97 CALM      29.95S FOG
TAPPAHANNOCK*  CLOUDY    72  69  89 CALM      29.93F FOG
QUINTON*       FAIR      74  73  95 CALM      29.92S
CHARLOTTSVILLE MOCLDY    71  64  78 S3        29.96R
GORDONSVILLE*  NOT AVBL
ORANGE*        MOCLDY    68  68 100 CALM      29.96R
LOUISA*        MOCLDY    68  66  94 CALM      29.94R
BUMPASS*       FAIR      69  67  96 CALM      29.94S
FARMVILLE*     PTCLDY    69  69 100 CALM      29.95S
CREWE*         FAIR     N/A N/A N/A CALM      29.96S
FORT PICKETT*  FAIR      72  70  95 W5        29.96S
CHASE CITY*    FAIR      74  74 100 CALM      29.97R
CLARKSVILLE*   FAIR      72  70  94 W3        29.96S
SOUTH HILL*    CLEAR     71  69  95 CALM      30.01S
LAWRENCEVILLE* FAIR      75  72  88 W3        29.94F
EMPORIA*       PTCLDY    72  70  94 CALM      29.95S
$$

VAZ088>098-050900-
SOUTHEAST VIRGINIA

CITY           SKY/WX    TMP DP  RH WIND       PRES   REMARKS
NORFOLK        PTCLDY    78  73  84 W6        29.92R
VIRGINIA BEACH MOCLDY    79  74  84 W5        29.92R
NORFOLK NAVAL  MOCLDY    77  73  87 W7        29.94R
WEST POINT*    MOCLDY    79  73  80 CALM      29.93S
SALUDA*        FAIR      77  73  88 W6        29.91R
NEWPORT NEWS   MOCLDY    77  73  87 W7        29.93R
LANGLEY AFB    MOCLDY    75  73  93 W6        29.92R
FORT EUSTIS    MOCLDY    77  77 100 VRB3      29.91R
WILLIAMSBURG*  MOCLDY    81  75  83 W5        29.93S
HR EXEC AP*    FAIR      75  72  88 CALM      29.95R
FRANKLIN*      PTCLDY    74  72  92 CALM      29.94R
WAKEFIELD      MOCLDY    75  71  87 SW3       29.93S
$$

VAZ020-022-025-037-045-050900-
WEST CENTRAL AND SOUTHWEST VIRGINIA

CITY           SKY/WX    TMP DP  RH WIND       PRES   REMARKS
STAUNTON*      MOCLDY    69  64  81 CALM      30.00F
WAYNESBORO*    FAIR      71  63  75 W6        30.00F
HOT SPRINGS VA CLOUDY    66  65  97 W12       30.10F
LYNCHBURG      CLOUDY    69  68  96 CALM      29.99F
DANVILLE       MOCLDY    71  67  87 CALM      29.99S
SOUTH BOSTON*  FAIR      72  68  87 W3        29.97R
MARTINSVILLE   MOCLDY    68  68 100 CALM      30.03S FOG
ROANOKE        CLOUDY    75  64  68 W6        30.02R
BLACKSBURG     CLOUDY    70  65  83 W3        30.09R
DUBLIN*          N/A     71  64  78 W3        30.09R
MARION*        MOCLDY    66  64  94 SW3       30.12S FOG
HILLSVILLE*    MOCLDY    69  62  80 W5        30.09F
RICHLANDS*     FAIR      65  65  99 NW3       30.11R
WISE*          FAIR      66  63  88 CALM      30.12R
ABINGDON*      PTCLDY    67  65  94 CALM      30.08F
$$

MDZ021>025-VAZ099-100-050900-
SOUTHERN MARYLAND AND THE DELMARVA PENINSULA

CITY           SKY/WX    TMP DP  RH WIND       PRES   REMARKS
PATUXENT RIVER CLOUDY    76  72  87 N8        29.91S
BAY BRIDGE APT   N/A     72  70  94 CALM      29.93S
LEONARDTOWN    CLOUDY    72  68  88 CALM      29.94S
DOVER          CLOUDY    72  72 100 NW3       29.90F
GEORGETOWN     MOCLDY    69  68  96 N5        29.91F
EASTON         CLOUDY    72  72 100 CALM      29.96F
CAMBRIDGE      CLOUDY    72  68  88 CALM      29.91F
SALISBURY      MOCLDY    71  71 100 S3        29.89F
OCEAN CITY       N/A    N/A N/A N/A MISG      29.88F
WALLOPS ISLAND LGT RAIN  74  73  97 S5        29.91F
ACCOMACK*      MOCLDY   N/A N/A N/A W6        29.92R
$$

NCZ012>017-030>032-050900-
NORTH CENTRAL AND EASTERN NORTH CAROLINA

CITY           SKY/WX    TMP DP  RH WIND       PRES   REMARKS
ROANOKE RAPIDS FAIR      72  70  94 SW5       29.94S
RALEIGH        PTCLDY    75  72  90 SW3       29.97S
ELIZABETH CITY CLEAR     75  75 100 SW3       29.94R FOG
AHOSKIE*       CLEAR    N/A N/A N/A CALM      29.94R
EDENTON*         N/A     77  74  89 W6        29.94R
CURRITUCK*     CLEAR     77  74  91 SW5       29.94R
KILL DEVIL HLS MOCLDY    77  74  91 CALM      29.94R FOG
MANTEO         MOCLDY    77  76  95 CALM      29.95R
CAPE HATTERAS  CLOUDY    79  76  90 W8        29.94R
TARBORO*         N/A     74  72  92 SW3       29.96R
GOLDSBORO      CLEAR     75  75 100 W3        29.94S
WASHINGTON     CLEAR     74  73  96 W5        29.95R
GREENVILLE     CLEAR     75  73  94 W6        29.97R
NEW BERN       CLEAR     77  73  87 SW5       29.96S
WILMINGTON     PTCLDY    79  78  97 SW8       29.97S
$$

VAZ048-050900-
ELSEWHERE

CITY           SKY/WX    TMP DP  RH WIND       PRES   REMARKS
HARRISBURG PA  MOCLDY    68  59  73 N5        29.93S
BALTIMORE      CLOUDY    69  67  93 CALM      29.93S
ANNAPOLIS      CLOUDY    75  70  84 CALM      29.92S
ANDREWS AFB    CLOUDY    72  70  93 N1        29.93S
PHILADELPHIA   CLOUDY    76  65  68 SW7       29.92S
HENDERSON NC   CLEAR     73  69  85 W3        29.97S
GREENSBORO     MOCLDY    76  64  66 NW6       30.00F
ROCKY MOUNT    CLEAR     74  73  97 SW6       29.96R
$$

VAZ100-050900-
MARINE

STATION/POSITION TIME  TEMP    WIND        PRES    WAVE   SWELL
                       AIR SEA DIR/SP/G            HT/PER HT/PER
                 (UTC) (F)     (DEG/KT/KT) (MB)    (FT/S) (FT/S)
BRANDYWINE LGT   0700   73 74  160/  5/  5 1013.5F
CAPE MAY NJ      0700   74 76  150/  1/  2 1013.0F
LEWES DE         0700   72 75   CALM  /  1 1013.2R
15NM E FENWICK I 0750   74 79  310/  8/ 10 1012.3F
OCEAN-CITY-INLET 0700   70 72  260/ 12/ 15 1012.1F
WACHAPREAGUE VA  0700   78 83  250/  3/  5 1012.6R
GOOSES REEF MD   0800   78 82   40/ 10/ 12 1014.0F
COVE POINT MD    0700   77      40/  9/ 11 1013.8R
SOLOMONS ISLAND  0700      83                N/A
BISHOPS HEAD MD  0700   78 81   30/  6/  9 1012.1R
PINEY POINT MD   0700           30/  3/  4   N/A
POTOMAC MD       0800   79 82  360/  8/  8 1011.6F   1
CAMBRIDGE MD     0700   75 85   70/  5/  7 1012.3R
LEWISETTA VA     0700   78 84  310/  5/  5 1012.7R
RAPPAHANNOCK LGT 0700          230/ 17/ 21 1012.8F
STINGRAY PT      0800   80 82  260/ 12/ 16 1013.1R   1/ 2
YORK RVR RNG VA  0700   78     260/ 14/ 17 1011.9F
YORKTOWN VA      0700   77 84  230/ 11/ 14 1012.1F
JAMESTOWN VA     0800   77 85  260/  4/  8   N/A
DOMINION TERM VA 0700   78     280/  9/ 11 1012.8F
KIPTOPEKE VA     0700      82  250/ 16/ 18   N/A
CHES BAY BRIDGE  0700   79 79  250/ 12/ 15 1012.2F
CAPE HENRY VA    0700   78     270/  7/ 10   N/A
CHESAPEAKE LGHT  0700   77     260/ 11/ 12 1013.9R
WILLOUBY STN VA  0700   79     270/ 13/ 17 1013.5F
CAPE HENRY BUOY  0728      77                N/A     3/ 6
1ST LANDING BUOY 0800      77              1013.1R   1/ 3
CAPE CHARLES BUO 0726      74                N/A     3/ 6   3/ 6
OFFSHORE WE BUOY 0711      81                N/A     4/ 6   3/ 6
64NM E OF VA BCH 0750   80 81  190/ 17/ 19 1013.2R   5/ 6   2/11
DUCK PIER NC     0700   79 62  250/ 10/ 13 1012.2F
44100 DUCK FRF   0724      77                N/A     3/ 6
44056 DUCK FRF   0711      64                N/A     3/ 6
OREGON INLET NC  0700   79 82  210/  6/  8 1013.3R
HATTERAS NC      0700   78 80  240/  5/  8 1012.7F
DIAMOND SHLS NC  0750   81 84  260/ 17/ 21 1013.6R   7/ 6   2/11
CAPE LOOKOUT NC  0800   80     250/ 14/ 17 1014.3R
$$



USA.gov is the U.S. government's official web portal to all federal, state and local government web resources and services.